Track STARLINK-3994 now! 10-day predictions STARLINK-3994 is classified as:
1 52633U 22052AM 22180.58334491 .00060543 00000-0 43317-3 0 9999 2 52633 53.2130 213.1932 0003152 14.8763 205.2755 15.73169540 1307